FW7504 Weather Reports


time (UTC)temp
C
wind
direction
speed
KPH
gust
KPH
rain 1hr
cm
rain 24hr
cm
rain mn
cm
humidity
%
barometer
mb
20260905062552 26 0 0.0 0.0 0.00 0.00 0.00 84 1015.2
20260905062053 26 0 0.0 0.0 0.00 0.00 0.00 83 1015.2
20260905061618 26 0 0.0 0.0 0.00 0.00 0.00 83 1015.3
20260905061054 26 0 0.0 0.0 0.00 0.00 0.00 83 1015.2
20260905060553 26 0 0.0 0.0 0.00 0.00 0.00 83 1015.2
20260905060109 26 0 0.0 0.0 0.00 0.00 0.00 83 1015.4
20260905055554 26 0 0.0 1.6 0.00 0.00 0.00 82 1015.4
20260905055053 26 0 0.0 1.6 0.00 0.00 0.00 82 1015.4
20260905054603 26 0 0.0 3.2 0.00 0.00 0.00 82 1015.5
20260905054052 26 0 0.0 3.2 0.00 0.00 0.00 82 1015.6
20260905053553 26 0 0.0 0.0 0.00 0.00 0.00 82 1015.4
20260905053114 26 0 0.0 0.0 0.00 0.00 0.00 82 1015.5
20260905052555 26 0 0.0 0.0 0.00 0.00 0.00 82 1015.5
20260905052056 26 0 0.0 0.0 0.00 0.00 0.00 82 1015.4
20260905051559 26 0 0.0 0.0 0.00 0.00 0.00 82 1015.5
20260905051117 26 0 0.0 0.0 0.00 0.00 0.00 82 1015.5
20260905050553 26 0 0.0 0.0 0.00 0.00 0.00 82 1015.4
20260905050108 26 0 0.0 0.0 0.00 0.00 0.00 81 1015.3
20260905045551 26 0 0.0 0.0 0.00 0.00 0.00 81 1015.5
20260905045054 27 0 0.0 1.6 0.00 0.00 0.00 81 1015.5
20260905044603 27 0 0.0 1.6 0.00 0.00 0.00 81 1015.6
20260905044052 27 0 0.0 1.6 0.00 0.00 0.00 80 1015.6
20260905043552 27 0 0.0 1.6 0.00 0.00 0.00 79 1015.7
20260905043106 27 0 0.0 1.6 0.00 0.00 0.00 80 1015.7
20260905042556 27 0 0.0 0.0 0.00 0.00 0.00 79 1015.7
20260905042052 27 0 0.0 0.0 0.00 0.00 0.00 78 1015.7
20260905041603 27 0 0.0 0.0 0.00 0.00 0.00 78 1015.7
20260905041052 27 0 0.0 0.0 0.00 0.00 0.00 77 1015.8
20260905040554 27 0 0.0 0.0 0.00 0.00 0.00 77 1015.7
20260905035553 27 0 0.0 0.0 0.00 0.00 0.00 76 1015.9
20260905035053 27 0 0.0 0.0 0.00 0.00 0.00 75 1016.1
20260905034601 27 0 0.0 1.6 0.00 0.00 0.00 75 1016.1
20260905034054 27 0 0.0 1.6 0.00 0.00 0.00 76 1016.2
20260905033552 28 0 0.0 3.2 0.00 0.00 0.00 75 1016.3
20260905033104 28 0 0.0 4.8 0.00 0.00 0.00 75 1016.4
20260905032552 28 0 1.6 4.8 0.00 0.00 0.00 75 1016.5
20260905032054 28 360 0.0 1.6 0.00 0.00 0.00 74 1016.4
20260905031603 28 0 0.0 1.6 0.00 0.00 0.00 75 1016.4
20260905031054 28 0 0.0 1.6 0.00 0.00 0.00 75 1016.4
20260905030553 28 0 0.0 1.6 0.00 0.00 0.00 74 1016.4
20260905030107 28 0 0.0 1.6 0.00 0.00 0.00 74 1016.4
20260905025552 28 0 0.0 0.0 0.00 0.00 0.00 73 1016.4
20260905025053 28 0 0.0 0.0 0.00 0.00 0.00 72 1016.4
20260905024640 28 0 0.0 0.0 0.00 0.00 0.00 71 1016.5
20260905024057 28 0 0.0 3.2 0.00 0.00 0.00 72 1016.6
20260905023554 28 0 0.0 3.2 0.00 0.00 0.00 72 1016.6
20260905023105 28 0 0.0 3.2 0.00 0.00 0.00 71 1016.5
20260905022552 28 0 0.0 0.0 0.00 0.00 0.00 72 1016.4
20260905022052 28 0 0.0 1.6 0.00 0.00 0.00 73 1016.4
20260905021603 28 0 0.0 1.6 0.00 0.00 0.00 72 1016.5
20260905021052 28 0 0.0 1.6 0.00 0.00 0.00 73 1016.4
20260905020554 29 0 0.0 1.6 0.00 0.00 0.00 73 1016.5
20260905015553 29 0 0.0 1.6 0.00 0.00 0.00 71 1016.4
20260905015055 29 0 0.0 1.6 0.00 0.00 0.00 72 1016.4
20260905014603 29 0 0.0 1.6 0.00 0.00 0.00 72 1016.3
20260905014052 29 0 0.0 0.0 0.00 0.00 0.00 73 1016.3
20260905013553 29 0 0.0 0.0 0.00 0.00 0.00 72 1016.4
20260905013113 29 0 0.0 0.0 0.00 0.00 0.00 72 1016.2
20260905012553 30 0 0.0 0.0 0.00 0.00 0.00 72 1016.3
20260905012054 30 0 0.0 3.2 0.00 0.00 0.00 71 1016.3
20260905011601 30 0 0.0 3.2 0.00 0.00 0.00 71 1016.3
20260905011053 30 0 0.0 3.2 0.00 0.00 0.00 71 1016.1
20260905010553 30 360 0.0 3.2 0.00 0.00 0.00 70 1016.1
20260905010108 30 0 0.0 1.6 0.00 0.00 0.00 70 1016.1
20260905005552 30 0 0.0 1.6 0.00 0.00 0.00 70 1016.2
20260905005053 30 0 0.0 0.0 0.00 0.00 0.00 71 1016.2
20260905004603 30 0 0.0 0.0 0.00 0.00 0.00 72 1016.2
20260905004055 30 0 0.0 0.0 0.00 0.00 0.00 71 1015.8
20260905003552 30 0 0.0 0.0 0.00 0.00 0.00 70 1015.8
20260905003104 31 0 0.0 0.0 0.00 0.00 0.00 69 1015.6
20260905002554 31 0 0.0 0.0 0.00 0.00 0.00 69 1015.6
20260905002054 31 0 0.0 0.0 0.00 0.00 0.00 68 1015.8
20260905001607 31 0 0.0 3.2 0.00 0.00 0.00 68 1015.7
20260905001052 31 0 0.0 3.2 0.00 0.00 0.00 68 1015.8
20260905000553 31 360 0.0 3.2 0.00 0.00 0.00 68 1015.7
20260905000108 31 0 0.0 0.0 0.00 0.00 0.00 67 1015.7
20260904235553 32 0 0.0 0.0 0.00 0.00 0.00 65 1015.7
20260904235052 32 0 0.0 0.0 0.00 0.00 0.00 65 1015.7
20260904234605 32 0 0.0 0.0 0.00 0.00 0.00 64 1015.7
20260904234052 32 0 0.0 1.6 0.00 0.00 0.00 64 1015.7
20260904233552 32 0 0.0 1.6 0.00 0.00 0.00 62 1015.6
20260904233105 33 0 0.0 1.6 0.00 0.00 0.00 62 1015.5
20260904232552 33 0 0.0 3.2 0.00 0.00 0.00 61 1015.4
20260904232052 33 0 0.0 3.2 0.00 0.00 0.00 60 1015.3
20260904231601 33 0 0.0 3.2 0.00 0.00 0.00 59 1015.4
20260904231057 33 0 0.0 3.2 0.00 0.00 0.00 58 1015.3
20260904230550 33 360 0.0 6.4 0.00 0.00 0.00 58 1015.3
20260904230101 33 0 1.6 6.4 0.00 0.00 0.00 58 1015.3
20260904225552 33 0 0.0 3.2 0.00 0.00 0.00 56 1015.3
20260904225052 34 0 0.0 3.2 0.00 0.00 0.00 56 1015.3
20260904224559 34 0 0.0 8.0 0.00 0.00 0.00 55 1015.3
20260904224052 34 0 0.0 8.0 0.00 0.00 0.00 55 1015.2
20260904223552 34 0 1.6 8.0 0.00 0.00 0.00 55 1015.2
20260904223109 34 0 0.0 4.8 0.00 0.00 0.00 54 1015.1
20260904222554 34 360 0.0 4.8 0.00 0.00 0.00 52 1015.2
20260904222053 35 360 1.6 9.7 0.00 0.00 0.00 51 1015.0
20260904221610 35 360 1.6 9.7 0.00 0.00 0.00 51 1015.0
20260904221053 35 360 3.2 9.7 0.00 0.00 0.00 51 1015.0
20260904220552 35 0 3.2 8.0 0.00 0.00 0.00 50 1014.8
20260904220106 35 0 1.6 8.0 0.00 0.00 0.00 50 1014.9
20260904215552 35 0 3.2 8.0 0.00 0.00 0.00 49 1014.7
20260904215053 35 360 3.2 8.0 0.00 0.00 0.00 49 1014.7
20260904214608 35 360 3.2 9.7 0.00 0.00 0.00 49 1014.9
20260904214054 35 360 1.6 14.5 0.00 0.00 0.00 49 1015.0
20260904213552 35 360 6.4 14.5 0.00 0.00 0.00 47 1015.1
20260904213103 36 360 8.0 14.5 0.00 0.00 0.00 48 1015.1
20260904212552 35 360 0.0 4.8 0.00 0.00 0.00 49 1015.1
20260904212053 35 360 1.6 12.9 0.00 0.00 0.00 50 1015.2
20260904211619 35 0 1.6 14.5 0.00 0.00 0.00 50 1015.2
20260904211053 35 0 4.8 14.5 0.00 0.00 0.00 50 1015.3
20260904210555 35 360 4.8 14.5 0.00 0.00 0.00 49 1015.3
20260904205553 35 360 3.2 8.0 0.00 0.00 0.00 49 1015.4
20260904205053 35 360 1.6 14.5 0.00 0.00 0.00 49 1015.4
20260904204602 35 360 4.8 14.5 0.00 0.00 0.00 49 1015.5
20260904204054 35 360 6.4 14.5 0.00 0.00 0.00 49 1015.6
20260904203552 35 360 3.2 14.5 0.00 0.00 0.00 50 1015.6
20260904203103 35 360 4.8 14.5 0.00 0.00 0.00 49 1015.6
20260904202552 35 360 1.6 8.0 0.00 0.00 0.00 51 1015.6
20260904202052 35 360 3.2 8.0 0.00 0.00 0.00 50 1016.0
20260904201604 35 360 0.0 9.7 0.00 0.00 0.00 50 1016.0
20260904201052 35 360 3.2 9.7 0.00 0.00 0.00 51 1016.1
20260904200552 35 360 3.2 20.9 0.00 0.00 0.00 51 1016.0
20260904200106 35 360 9.7 20.9 0.00 0.00 0.00 51 1016.0
20260904195553 35 360 1.6 9.7 0.00 0.00 0.00 51 1016.1
20260904195052 35 360 4.8 9.7 0.00 0.00 0.00 50 1016.3
20260904194604 35 360 1.6 9.7 0.00 0.00 0.00 51 1016.4
20260904194050 35 360 3.2 9.7 0.00 0.00 0.00 51 1016.4
20260904193553 35 360 0.0 6.4 0.00 0.00 0.00 54 1016.3
20260904193102 35 0 0.0 8.0 0.00 0.00 0.00 53 1016.6
20260904192551 35 360 1.6 8.0 0.00 0.00 0.00 54 1016.5
20260904192051 35 360 3.2 8.0 0.00 0.00 0.00 52 1016.7
20260904191602 35 360 0.0 4.8 0.00 0.00 0.00 54 1016.8
20260904191051 35 0 0.0 8.0 0.00 0.00 0.00 54 1016.9
20260904190551 35 360 1.6 8.0 0.00 0.00 0.00 54 1016.9
20260904190104 35 360 1.6 8.0 0.00 0.00 0.00 56 1017.0
20260904185550 35 360 0.0 4.8 0.00 0.00 0.00 58 1017.0
20260904185050 34 360 1.6 3.2 0.00 0.00 0.00 59 1017.1
20260904184607 34 360 1.6 8.0 0.00 0.00 0.00 59 1017.1
20260904184050 34 0 1.6 8.0 0.00 0.00 0.00 58 1017.3
20260904183550 34 360 1.6 8.0 0.00 0.00 0.00 61 1017.3
20260904183100 33 0 0.0 4.8 0.00 0.00 0.00 61 1017.5
20260904182555 33 360 0.0 4.8 0.00 0.00 0.00 61 1017.5
20260904182050 33 360 0.0 4.8 0.00 0.00 0.00 62 1017.6
20260904181601 33 0 0.0 3.2 0.00 0.00 0.00 62 1017.7
20260904181051 33 0 0.0 4.8 0.00 0.00 0.00 62 1017.8
20260904180550 33 0 1.6 4.8 0.00 0.00 0.00 62 1017.8
20260904180110 33 0 0.0 4.8 0.00 0.00 0.00 64 1017.8
20260904175550 33 0 0.0 6.4 0.00 0.00 0.00 61 1017.9
20260904175050 33 0 0.0 8.0 0.00 0.00 0.00 62 1017.9
20260904174604 33 360 1.6 8.0 0.00 0.00 0.00 60 1018.0
20260904174050 33 0 0.0 4.8 0.00 0.00 0.00 61 1017.9
20260904173549 33 0 0.0 3.2 0.00 0.00 0.00 61 1018.0
20260904173103 33 360 0.0 3.2 0.00 0.00 0.00 61 1018.1
20260904172551 33 0 0.0 6.4 0.00 0.00 0.00 62 1018.3
20260904172053 33 360 1.6 6.4 0.00 0.00 0.00 61 1018.2
20260904171602 32 360 1.6 8.0 0.00 0.00 0.00 61 1018.4
20260904171052 32 360 3.2 8.0 0.00 0.00 0.00 61 1018.4
20260904170549 32 360 1.6 8.0 0.00 0.00 0.00 61 1018.5
20260904170130 32 360 1.6 8.0 0.00 0.00 0.00 62 1018.5
20260904165550 32 360 3.2 6.4 0.00 0.00 0.00 63 1018.6
20260904165052 32 360 1.6 8.0 0.00 0.00 0.00 65 1018.7
20260904164605 32 0 1.6 8.0 0.00 0.00 0.00 65 1018.7
20260904164053 32 360 1.6 6.4 0.00 0.00 0.00 65 1018.7
20260904163555 31 360 0.0 6.4 0.00 0.00 0.00 65 1018.7
20260904163106 31 360 0.0 8.0 0.00 0.00 0.00 66 1018.8
20260904162550 31 0 0.0 8.0 0.00 0.00 0.00 65 1018.8
20260904162052 31 360 1.6 6.4 0.00 0.00 0.00 67 1018.9
20260904161603 31 0 0.0 1.6 0.00 0.00 0.00 68 1018.9
20260904161048 31 0 0.0 3.2 0.00 0.00 0.00 68 1019.1
20260904160552 31 360 0.0 4.8 0.00 0.00 0.00 68 1019.1
20260904160105 31 0 0.0 6.4 0.00 0.00 0.00 68 1019.2
20260904155552 31 360 0.0 6.4 0.00 0.00 0.00 68 1019.3
20260904155054 31 360 1.6 6.4 0.00 0.00 0.00 68 1019.3
20260904154607 31 360 0.0 4.8 0.00 0.00 0.00 69 1019.2
20260904154052 31 0 0.0 4.8 0.00 0.00 0.00 69 1019.2
20260904153552 30 0 0.0 4.8 0.00 0.00 0.00 70 1019.2
20260904153107 30 0 0.0 4.8 0.00 0.00 0.00 70 1019.3
20260904152552 30 0 0.0 4.8 0.00 0.00 0.00 71 1019.2
20260904152054 30 0 1.6 4.8 0.00 0.00 0.00 71 1019.2
20260904151603 30 360 0.0 4.8 0.00 0.00 0.00 71 1019.3
20260904151052 30 360 0.0 4.8 0.00 0.00 0.00 71 1019.3
20260904150552 30 360 0.0 6.4 0.00 0.00 0.00 71 1019.3
20260904145552 30 360 0.0 3.2 0.00 0.00 0.00 74 1019.2
20260904145051 29 0 0.0 3.2 0.00 0.00 0.00 74 1019.3
20260904144603 29 360 0.0 4.8 0.00 0.00 0.00 75 1019.3
20260904144056 29 0 1.6 4.8 0.00 0.00 0.00 74 1019.2
20260904143552 28 0 0.0 4.8 0.00 0.00 0.00 75 1019.1
20260904143101 28 360 1.6 4.8 0.00 0.00 0.00 76 1019.1
20260904142553 28 0 0.0 3.2 0.00 0.00 0.00 76 1019.0
20260904142054 28 0 0.0 1.6 0.00 0.00 0.00 75 1019.1
20260904141622 28 0 0.0 3.2 0.00 0.00 0.00 77 1018.9
20260904141053 28 0 0.0 3.2 0.00 0.00 0.00 77 1018.8
20260904140552 28 0 0.0 3.2 0.00 0.00 0.00 77 1018.8
20260904140105 27 0 0.0 3.2 0.00 0.00 0.00 78 1018.7
20260904135556 27 360 0.0 3.2 0.00 0.00 0.00 78 1018.8
20260904135053 27 360 0.0 3.2 0.00 0.00 0.00 79 1018.9
20260904134606 27 0 0.0 3.2 0.00 0.00 0.00 80 1018.9
20260904134052 27 360 0.0 3.2 0.00 0.00 0.00 81 1018.8
20260904133551 26 360 0.0 3.2 0.00 0.00 0.00 81 1018.8
20260904133101 26 0 1.6 3.2 0.00 0.00 0.00 82 1018.8
20260904132553 26 0 0.0 4.8 0.00 0.00 0.00 83 1018.8
20260904132054 26 360 1.6 4.8 0.00 0.00 0.00 83 1018.8
20260904131639 26 0 0.0 3.2 0.00 0.00 0.00 85 1019.0
20260904131052 25 0 0.0 3.2 0.00 0.00 0.00 86 1019.0
20260904130552 25 0 0.0 0.0 0.00 0.00 0.00 87 1018.9
20260904125553 25 0 0.0 0.0 0.00 0.00 0.00 88 1018.9
20260904125050 25 0 0.0 0.0 0.00 0.00 0.00 88 1019.0
20260904124559 25 0 0.0 0.0 0.00 0.00 0.00 89 1018.9
20260904124049 24 0 0.0 0.0 0.00 0.00 0.00 89 1018.8
20260904123549 24 0 0.0 0.0 0.00 0.00 0.00 90 1018.8
20260904123109 24 0 0.0 0.0 0.00 0.00 0.00 90 1018.9
20260904122552 23 0 0.0 0.0 0.00 0.00 0.00 90 1018.8
20260904122054 23 0 0.0 1.6 0.00 0.00 0.00 91 1018.8
20260904121559 23 0 0.0 3.2 0.00 0.00 0.00 91 1018.9
20260904121052 23 0 0.0 3.2 0.00 0.00 0.00 91 1018.9
20260904120555 23 0 0.0 0.0 0.00 0.00 0.00 91 1018.8
20260904120106 23 0 0.0 0.0 0.00 0.00 0.00 91 1018.7
20260904115551 23 0 0.0 0.0 0.00 0.00 0.00 91 1018.8
20260904115052 23 0 0.0 1.6 0.00 0.00 0.00 91 1018.7
20260904114601 23 0 0.0 1.6 0.00 0.00 0.00 91 1018.6
20260904114052 23 0 0.0 0.0 0.00 0.00 0.00 91 1018.6
20260904113552 23 0 0.0 0.0 0.00 0.00 0.00 90 1018.5
20260904113110 23 0 0.0 0.0 0.00 0.00 0.00 90 1018.4
20260904112551 23 0 0.0 0.0 0.00 0.00 0.00 91 1018.6
20260904112051 23 0 0.0 0.0 0.00 0.00 0.00 91 1018.5
20260904111600 23 0 0.0 3.2 0.00 0.00 0.00 90 1018.5
20260904111051 23 0 0.0 3.2 0.00 0.00 0.00 90 1018.4
20260904110552 23 0 0.0 3.2 0.00 0.00 0.00 90 1018.3
20260904110106 23 360 0.0 3.2 0.00 0.00 0.00 90 1018.2
20260904105552 23 0 0.0 1.6 0.00 0.00 0.00 90 1018.1
20260904105053 23 0 0.0 1.6 0.00 0.00 0.00 89 1018.1
20260904104611 23 0 0.0 0.0 0.00 0.00 0.00 89 1018.0
20260904104051 23 0 0.0 0.0 0.00 0.00 0.00 89 1017.9
20260904103552 23 0 0.0 0.0 0.00 0.00 0.00 89 1018.0
20260904103107 23 0 0.0 0.0 0.00 0.00 0.00 89 1017.9
20260904102552 23 0 0.0 0.0 0.00 0.00 0.00 89 1017.9
20260904102052 23 0 0.0 0.0 0.00 0.00 0.00 89 1017.9
20260904101604 23 0 0.0 0.0 0.00 0.00 0.00 90 1018.0
20260904101051 23 0 0.0 0.0 0.00 0.00 0.00 89 1017.9
20260904100552 23 0 0.0 0.0 0.00 0.00 0.00 89 1017.9
20260904100059 23 0 0.0 0.0 0.00 0.00 0.00 89 1017.9
20260904095553 23 0 0.0 0.0 0.00 0.00 0.00 89 1017.9
20260904095052 23 0 0.0 0.0 0.00 0.00 0.00 89 1017.7
20260904094602 24 0 0.0 0.0 0.00 0.00 0.00 89 1017.8
20260904094051 24 0 0.0 0.0 0.00 0.00 0.00 89 1017.7
20260904093551 24 0 0.0 0.0 0.00 0.00 0.00 89 1017.7
20260904093105 24 0 0.0 0.0 0.00 0.00 0.00 89 1017.7
20260904092552 24 0 0.0 0.0 0.00 0.00 0.00 88 1017.7
20260904092052 24 0 0.0 0.0 0.00 0.00 0.00 89 1017.8
20260904091600 24 0 0.0 0.0 0.00 0.00 0.00 89 1017.7
20260904091051 24 0 0.0 0.0 0.00 0.00 0.00 88 1017.7
20260904090548 24 0 0.0 0.0 0.00 0.00 0.00 88 1017.6
20260904085548 24 0 0.0 0.0 0.00 0.00 0.00 88 1017.7
20260904085051 24 0 0.0 0.0 0.00 0.00 0.00 87 1017.8
20260904084601 24 0 0.0 0.0 0.00 0.00 0.00 87 1017.6
20260904084049 24 0 0.0 0.0 0.00 0.00 0.00 87 1017.7
20260904083550 24 0 0.0 0.0 0.00 0.00 0.00 87 1017.6
20260904083110 25 0 0.0 0.0 0.00 0.00 0.00 87 1017.5
20260904082550 25 0 0.0 0.0 0.00 0.00 0.00 87 1017.7
20260904082050 25 0 0.0 0.0 0.00 0.00 0.00 87 1017.6
20260904081559 25 0 0.0 0.0 0.00 0.00 0.00 87 1017.6
20260904081051 25 0 0.0 0.0 0.00 0.00 0.00 86 1017.6
20260904080549 25 0 0.0 0.0 0.00 0.00 0.00 86 1017.5
20260904075549 25 0 0.0 1.6 0.00 0.00 0.00 86 1017.4
20260904075051 25 0 0.0 1.6 0.00 0.00 0.00 86 1017.5
20260904074635 25 0 0.0 0.0 0.00 0.00 0.00 86 1017.3
20260904074049 25 0 0.0 0.0 0.00 0.00 0.00 86 1017.4
20260904073555 25 0 0.0 0.0 0.00 0.00 0.00 86 1017.5
20260904073103 25 0 0.0 0.0 0.00 0.00 0.00 86 1017.5
20260904072554 25 0 0.0 0.0 0.00 0.00 0.00 85 1017.4
20260904072051 25 0 0.0 0.0 0.00 0.00 0.00 86 1017.2
20260904071555 25 0 0.0 0.0 0.00 0.00 0.00 86 1017.2
20260904071049 25 0 0.0 0.0 0.00 0.00 0.00 85 1017.0
20260904070554 25 0 0.0 1.6 0.00 0.00 0.00 85 1017.2
20260904070104 25 0 0.0 1.6 0.00 0.00 0.00 85 1017.2
20260904065548 25 0 0.0 0.0 0.00 0.00 0.00 85 1017.3
20260904065051 25 0 0.0 0.0 0.00 0.00 0.00 85 1017.3
20260904064601 25 0 0.0 0.0 0.00 0.00 0.00 85 1017.2
20260904064051 25 0 0.0 0.0 0.00 0.00 0.00 85 1017.2
20260904063552 25 0 0.0 0.0 0.00 0.00 0.00 85 1017.2
20260904063112 25 0 0.0 1.6 0.00 0.00 0.00 85 1017.5